"Zeitpunkt";"timestamp";"D0";"V0";"V0_max";"T0";"F0";"G0";"S0";"R0";"M0";"T1";"L0";"L0_nn"
"21.02.2023, 00:00";"1676941201";"212";"5";"11";"84";"85";"7";"0";"0";"0";"80";"0";"10079"
"21.02.2023, 00:10";"1676941801";"211";"4";"10";"84";"86";"7";"0";"0";"0";"80";"0";"10079"
"21.02.2023, 00:20";"1676942401";"209";"4";"10";"84";"86";"7";"0";"0";"0";"80";"0";"10079"
"21.02.2023, 00:30";"1676943001";"205";"5";"10";"84";"86";"7";"0";"0";"0";"80";"0";"10079"
"21.02.2023, 00:40";"1676943601";"210";"5";"10";"84";"86";"7";"0";"0";"0";"80";"0";"10079"
"21.02.2023, 00:50";"1676944201";"212";"5";"11";"84";"86";"7";"0";"0";"0";"80";"0";"10079"
"21.02.2023, 01:00";"1676944801";"211";"5";"11";"83";"87";"7";"0";"0";"0";"80";"0";"10079"
"21.02.2023, 01:10";"1676945401";"208";"5";"11";"83";"86";"7";"0";"0";"0";"80";"0";"10074"
"21.02.2023, 01:20";"1676946001";"216";"5";"11";"83";"86";"7";"0";"0";"0";"80";"0";"10074"
"21.02.2023, 01:30";"1676946601";"209";"4";"9";"83";"86";"7";"0";"0";"0";"80";"0";"10074"
"21.02.2023, 01:40";"1676947201";"210";"4";"9";"83";"86";"7";"0";"0";"0";"79";"0";"10074"
"21.02.2023, 01:50";"1676947801";"201";"4";"8";"83";"86";"8";"0";"0";"0";"79";"0";"10074"
"21.02.2023, 02:00";"1676948401";"206";"3";"10";"83";"86";"7";"0";"0";"0";"79";"0";"10074"
"21.02.2023, 02:10";"1676949001";"194";"3";"9";"82";"86";"8";"0";"0";"0";"78";"0";"10072"
"21.02.2023, 02:20";"1676949601";"197";"3";"7";"82";"86";"8";"0";"0";"0";"78";"0";"10072"
"21.02.2023, 02:30";"1676950201";"193";"2";"6";"81";"86";"8";"0";"0";"0";"77";"0";"10072"
"21.02.2023, 02:40";"1676950802";"199";"2";"7";"81";"87";"8";"0";"0";"0";"77";"0";"10072"
"21.02.2023, 02:50";"1676951401";"197";"3";"7";"81";"87";"8";"0";"0";"0";"77";"0";"10072"
"21.02.2023, 03:00";"1676952001";"187";"3";"7";"80";"87";"8";"0";"0";"0";"76";"0";"10072"
"21.02.2023, 03:10";"1676952601";"194";"3";"6";"80";"87";"8";"0";"0";"0";"76";"0";"10072"
"21.02.2023, 03:20";"1676953201";"191";"3";"6";"80";"87";"8";"0";"0";"0";"76";"0";"10072"
"21.02.2023, 03:30";"1676953801";"192";"2";"5";"79";"87";"8";"0";"0";"0";"76";"0";"10072"
"21.02.2023, 03:40";"1676954401";"196";"3";"6";"79";"87";"8";"0";"0";"0";"76";"0";"10072"
"21.02.2023, 03:50";"1676955001";"190";"3";"6";"79";"88";"8";"0";"0";"0";"76";"0";"10072"
"21.02.2023, 04:00";"1676955601";"188";"3";"5";"79";"88";"8";"0";"0";"0";"75";"0";"10072"
"21.02.2023, 04:10";"1676956201";"196";"3";"6";"79";"87";"8";"0";"0";"0";"75";"0";"10070"
"21.02.2023, 04:20";"1676956801";"199";"3";"7";"79";"88";"8";"0";"0";"0";"75";"0";"10070"
"21.02.2023, 04:30";"1676957401";"191";"2";"6";"79";"88";"8";"0";"0";"0";"75";"0";"10070"
"21.02.2023, 04:40";"1676958001";"201";"3";"7";"79";"88";"8";"0";"0";"0";"75";"0";"10070"
"21.02.2023, 04:50";"1676958601";"207";"3";"6";"79";"88";"8";"0";"0";"0";"75";"0";"10070"
"21.02.2023, 05:00";"1676959201";"202";"2";"6";"79";"88";"8";"0";"0";"0";"75";"0";"10070"
"21.02.2023, 05:10";"1676959801";"194";"3";"7";"78";"88";"8";"0";"0";"0";"75";"0";"10072"
"21.02.2023, 05:20";"1676960401";"196";"3";"6";"78";"88";"8";"0";"0";"0";"75";"0";"10072"
"21.02.2023, 05:30";"1676961001";"190";"3";"8";"78";"88";"8";"0";"0";"0";"75";"0";"10072"
"21.02.2023, 05:40";"1676961601";"194";"4";"9";"77";"89";"8";"0";"0";"0";"75";"0";"10072"
"21.02.2023, 05:50";"1676962201";"196";"4";"9";"77";"89";"8";"0";"0";"0";"74";"0";"10072"
"21.02.2023, 06:00";"1676962801";"199";"4";"8";"77";"89";"8";"0";"0";"0";"74";"0";"10072"
"21.02.2023, 06:10";"1676963401";"196";"4";"8";"76";"90";"8";"0";"0";"0";"74";"0";"10070"
"21.02.2023, 06:20";"1676964001";"193";"4";"9";"76";"90";"8";"0";"0";"0";"74";"0";"10070"
"21.02.2023, 06:30";"1676964601";"205";"4";"8";"75";"90";"7";"0";"0";"0";"74";"0";"10070"
"21.02.2023, 06:40";"1676965201";"202";"4";"10";"75";"90";"8";"0";"0";"0";"74";"0";"10070"
"21.02.2023, 06:50";"1676965801";"195";"5";"10";"74";"91";"8";"0";"0";"0";"74";"0";"10070"
"21.02.2023, 07:00";"1676966401";"196";"6";"11";"74";"91";"8";"0";"0";"0";"74";"0";"10070"
"21.02.2023, 07:10";"1676967001";"197";"6";"10";"73";"91";"8";"0";"0";"0";"74";"0";"10072"
"21.02.2023, 07:20";"1676967602";"199";"5";"10";"73";"92";"9";"0";"0";"0";"73";"0";"10072"
"21.02.2023, 07:30";"1676968201";"197";"5";"11";"72";"91";"10";"0";"6";"0";"72";"0";"10072"
"21.02.2023, 07:40";"1676968801";"194";"5";"9";"73";"92";"8";"0";"10";"0";"73";"0";"10072"
"21.02.2023, 07:50";"1676969401";"202";"4";"9";"73";"92";"10";"0";"10";"0";"73";"0";"10072"
"21.02.2023, 08:00";"1676970001";"194";"4";"10";"73";"91";"12";"0";"10";"0";"74";"0";"10072"
"21.02.2023, 08:10";"1676970601";"193";"5";"11";"73";"91";"16";"0";"10";"0";"75";"0";"10074"
"21.02.2023, 08:20";"1676971201";"193";"5";"9";"74";"91";"23";"0";"10";"0";"77";"0";"10074"
"21.02.2023, 08:30";"1676971801";"193";"4";"8";"74";"91";"26";"0";"10";"0";"76";"0";"10074"
"21.02.2023, 08:40";"1676972401";"195";"4";"9";"74";"91";"23";"0";"10";"0";"76";"0";"10074"
"21.02.2023, 08:50";"1676973001";"189";"4";"9";"74";"91";"25";"0";"10";"0";"74";"0";"10074"
"21.02.2023, 09:00";"1676973601";"187";"5";"9";"74";"90";"24";"0";"10";"0";"77";"0";"10074"
"21.02.2023, 09:10";"1676974201";"191";"4";"8";"76";"90";"49";"0";"9";"0";"81";"0";"10070"
"21.02.2023, 09:20";"1676974801";"191";"4";"8";"77";"90";"62";"0";"0";"0";"81";"0";"10070"
"21.02.2023, 09:30";"1676975401";"191";"4";"8";"77";"89";"83";"0";"0";"0";"81";"0";"10070"
"21.02.2023, 09:40";"1676976001";"196";"6";"11";"79";"89";"72";"0";"0";"0";"84";"0";"10070"
"21.02.2023, 09:50";"1676976601";"192";"5";"12";"79";"89";"77";"0";"0";"0";"83";"0";"10070"
"21.02.2023, 10:00";"1676977201";"199";"5";"9";"80";"89";"76";"0";"0";"0";"84";"0";"10070"
"21.02.2023, 10:10";"1676977802";"192";"4";"9";"80";"88";"65";"0";"0";"0";"87";"0";"10070"
"21.02.2023, 10:20";"1676978401";"195";"4";"9";"81";"88";"88";"0";"0";"0";"87";"0";"10070"
"21.02.2023, 10:30";"1676979001";"192";"4";"9";"81";"87";"61";"0";"0";"0";"85";"0";"10070"
"21.02.2023, 10:40";"1676979602";"194";"5";"9";"82";"87";"67";"0";"0";"0";"86";"0";"10070"
"21.02.2023, 10:50";"1676980201";"189";"5";"10";"83";"86";"63";"0";"0";"0";"86";"0";"10070"
"21.02.2023, 11:00";"1676980801";"192";"4";"9";"84";"86";"66";"0";"0";"0";"88";"0";"10070"
"21.02.2023, 11:10";"1676981401";"190";"4";"10";"84";"86";"55";"0";"0";"0";"86";"0";"10065"
"21.02.2023, 11:20";"1676982001";"188";"3";"6";"85";"85";"51";"0";"0";"0";"87";"0";"10065"
"21.02.2023, 11:30";"1676982601";"224";"2";"6";"86";"84";"40";"0";"0";"0";"90";"0";"10065"
"21.02.2023, 11:40";"1676983201";"218";"1";"4";"87";"84";"49";"0";"0";"0";"89";"0";"10065"
"21.02.2023, 11:50";"1676983801";"230";"1";"4";"87";"83";"42";"0";"0";"0";"89";"0";"10065"
"21.02.2023, 12:00";"1676984401";"206";"1";"5";"87";"83";"34";"0";"0";"0";"88";"0";"10065"
"21.02.2023, 12:10";"1676985001";"204";"2";"4";"87";"83";"31";"0";"0";"0";"87";"0";"10060"
"21.02.2023, 12:20";"1676985601";"202";"2";"4";"87";"83";"27";"0";"0";"0";"86";"0";"10060"
"21.02.2023, 12:30";"1676986201";"192";"2";"5";"86";"83";"24";"0";"0";"0";"86";"0";"10060"
"21.02.2023, 12:40";"1676986801";"181";"2";"5";"86";"84";"24";"0";"0";"0";"86";"0";"10060"
"21.02.2023, 12:50";"1676987401";"178";"2";"5";"86";"84";"25";"0";"0";"0";"86";"0";"10060"
"21.02.2023, 13:00";"1676988001";"177";"3";"5";"86";"84";"26";"0";"0";"0";"86";"0";"10060"
"21.02.2023, 13:10";"1676988601";"177";"2";"5";"86";"84";"26";"0";"0";"0";"86";"0";"10056"
"21.02.2023, 13:20";"1676989201";"214";"2";"4";"86";"84";"19";"0";"0";"0";"85";"0";"10056"
"21.02.2023, 13:30";"1676989801";"205";"0";"3";"86";"84";"16";"0";"0";"0";"85";"0";"10056"
"21.02.2023, 13:40";"1676990401";"217";"2";"5";"85";"84";"15";"0";"0";"0";"84";"0";"10056"
"21.02.2023, 13:50";"1676991001";"178";"1";"4";"85";"84";"16";"0";"0";"0";"86";"0";"10056"
"21.02.2023, 14:00";"1676991601";"263";"1";"3";"86";"84";"11";"0";"0";"0";"84";"0";"10056"
"21.02.2023, 14:10";"1676992201";"192";"2";"4";"85";"84";"13";"0";"0";"0";"83";"0";"10053"
"21.02.2023, 14:20";"1676992801";"216";"1";"4";"85";"84";"12";"0";"0";"0";"83";"0";"10053"
"21.02.2023, 14:30";"1676993401";"221";"1";"3";"86";"84";"8";"0";"0";"0";"84";"0";"10053"
"21.02.2023, 14:40";"1676994001";"279";"0";"2";"86";"84";"6";"0";"0";"0";"84";"0";"10053"
"21.02.2023, 14:50";"1676994601";"246";"1";"4";"86";"84";"7";"0";"0";"0";"83";"0";"10053"
"21.02.2023, 15:00";"1676995201";"257";"1";"3";"86";"84";"6";"0";"0";"0";"83";"0";"10053"
"21.02.2023, 15:10";"1676995801";"277";"1";"2";"86";"84";"6";"0";"0";"0";"82";"0";"10048"
"21.02.2023, 15:20";"1676996402";"248";"0";"2";"86";"85";"7";"0";"0";"0";"82";"0";"10048"
"21.02.2023, 15:30";"1676997001";"271";"0";"1";"85";"84";"6";"0";"0";"0";"81";"0";"10048"
"21.02.2023, 15:40";"1676997601";"205";"0";"2";"85";"84";"8";"0";"0";"0";"80";"0";"10048"
"21.02.2023, 15:50";"1676998201";"185";"0";"3";"85";"84";"8";"0";"0";"0";"80";"0";"10048"
"21.02.2023, 16:00";"1676998801";"176";"1";"2";"85";"85";"9";"0";"0";"0";"80";"0";"10048"
"21.02.2023, 16:10";"1676999401";"169";"1";"3";"84";"85";"9";"0";"0";"0";"79";"0";"10049"
"21.02.2023, 16:20";"1677000001";"153";"1";"3";"84";"85";"9";"0";"0";"0";"79";"0";"10049"
"21.02.2023, 16:30";"1677000601";"167";"0";"3";"84";"85";"9";"0";"0";"0";"79";"0";"10049"
"21.02.2023, 16:40";"1677001201";"167";"0";"2";"84";"85";"9";"0";"0";"0";"79";"0";"10049"
"21.02.2023, 16:50";"1677001801";"173";"0";"3";"84";"85";"9";"0";"0";"0";"79";"0";"10049"
"21.02.2023, 17:00";"1677002401";"176";"0";"2";"84";"85";"9";"0";"0";"0";"79";"0";"10049"
"21.02.2023, 17:10";"1677003001";"194";"0";"2";"84";"85";"8";"0";"0";"0";"79";"0";"10049"
"21.02.2023, 17:20";"1677003601";"192";"0";"2";"84";"85";"8";"0";"0";"0";"79";"0";"10049"
"21.02.2023, 17:30";"1677004201";"175";"0";"2";"84";"85";"9";"0";"0";"0";"79";"0";"10049"
"21.02.2023, 17:40";"1677004801";"172";"0";"1";"84";"84";"9";"0";"0";"0";"79";"0";"10049"
"21.02.2023, 17:50";"1677005401";"128";"0";"2";"85";"84";"9";"0";"0";"0";"79";"0";"10049"
"21.02.2023, 18:00";"1677006002";"125";"1";"3";"85";"83";"9";"0";"0";"0";"78";"0";"10049"
"21.02.2023, 18:10";"1677006601";"114";"0";"4";"85";"82";"10";"0";"0";"0";"77";"0";"10045"
"21.02.2023, 18:20";"1677007201";"123";"1";"3";"85";"83";"9";"0";"0";"0";"78";"0";"10045"
"21.02.2023, 18:30";"1677007801";"152";"1";"4";"85";"81";"9";"0";"0";"0";"77";"0";"10045"
"21.02.2023, 18:40";"1677008401";"154";"2";"4";"85";"81";"9";"0";"0";"0";"76";"0";"10045"
"21.02.2023, 18:50";"1677009001";"170";"2";"5";"84";"81";"9";"0";"0";"0";"76";"0";"10045"
"21.02.2023, 19:00";"1677009601";"169";"0";"2";"84";"82";"9";"0";"0";"0";"76";"0";"10045"
"21.02.2023, 19:10";"1677010201";"180";"1";"3";"84";"82";"8";"0";"0";"0";"76";"0";"10043"
"21.02.2023, 19:20";"1677010801";"156";"0";"3";"83";"81";"9";"0";"0";"0";"74";"0";"10043"
"21.02.2023, 19:30";"1677011401";"131";"1";"3";"83";"80";"9";"0";"0";"0";"71";"0";"10043"
"21.02.2023, 19:40";"1677012002";"110";"1";"4";"83";"80";"10";"0";"0";"0";"72";"0";"10043"
"21.02.2023, 19:50";"1677012601";"108";"1";"3";"82";"80";"10";"0";"0";"0";"71";"0";"10043"
"21.02.2023, 20:00";"1677013201";"90";"1";"4";"81";"80";"10";"0";"0";"0";"70";"0";"10043"
"21.02.2023, 20:10";"1677013801";"93";"1";"5";"81";"80";"10";"0";"0";"0";"68";"0";"10039"
"21.02.2023, 20:20";"1677014401";"84";"1";"4";"80";"81";"10";"0";"0";"0";"67";"0";"10039"
"21.02.2023, 20:30";"1677015001";"85";"1";"3";"79";"81";"10";"0";"0";"0";"69";"0";"10039"
"21.02.2023, 20:40";"1677015602";"96";"1";"4";"79";"81";"10";"0";"0";"0";"70";"0";"10039"
"21.02.2023, 20:50";"1677016201";"108";"1";"4";"79";"81";"10";"0";"0";"0";"69";"0";"10039"
"21.02.2023, 21:00";"1677016801";"137";"0";"4";"78";"81";"9";"0";"0";"0";"69";"0";"10039"
"21.02.2023, 21:10";"1677017401";"156";"1";"5";"78";"81";"9";"0";"0";"0";"69";"0";"10037"
"21.02.2023, 21:20";"1677018001";"152";"2";"4";"78";"82";"9";"0";"0";"0";"70";"0";"10037"
"21.02.2023, 21:30";"1677018601";"169";"0";"3";"77";"83";"9";"0";"0";"0";"69";"0";"10037"
"21.02.2023, 21:40";"1677019201";"175";"0";"2";"77";"83";"9";"0";"0";"0";"68";"0";"10037"
"21.02.2023, 21:50";"1677019801";"135";"0";"3";"77";"82";"9";"0";"0";"0";"68";"0";"10037"
"21.02.2023, 22:00";"1677020401";"122";"0";"3";"77";"83";"9";"0";"0";"0";"67";"0";"10037"
"21.02.2023, 22:10";"1677021001";"93";"1";"4";"77";"83";"10";"0";"0";"0";"66";"0";"10032"
"21.02.2023, 22:20";"1677021601";"91";"2";"5";"76";"83";"10";"0";"0";"0";"67";"0";"10032"
"21.02.2023, 22:30";"1677022201";"93";"2";"6";"75";"83";"10";"0";"0";"0";"67";"0";"10032"
"21.02.2023, 22:40";"1677022801";"113";"2";"5";"75";"84";"10";"0";"0";"0";"66";"0";"10032"
"21.02.2023, 22:50";"1677023401";"100";"0";"4";"73";"84";"9";"0";"0";"0";"56";"0";"10032"
"21.02.2023, 23:00";"1677024001";"71";"0";"2";"70";"85";"11";"0";"0";"0";"49";"0";"10032"
"21.02.2023, 23:10";"1677024601";"87";"0";"2";"68";"86";"10";"0";"0";"0";"47";"0";"10025"
"21.02.2023, 23:20";"1677025201";"58";"0";"0";"64";"87";"11";"0";"0";"0";"41";"0";"10025"
"21.02.2023, 23:30";"1677025801";"58";"0";"0";"61";"87";"11";"0";"0";"0";"39";"0";"10025"
"21.02.2023, 23:40";"1677026401";"139";"0";"0";"59";"89";"9";"0";"0";"0";"34";"0";"10025"
"21.02.2023, 23:50";"1677027001";"174";"0";"0";"56";"90";"9";"0";"0";"0";"31";"0";"10025"
"22.02.2023, 00:00";"1677027601";"175";"0";"2";"54";"90";"9";"0";"0";"0";"30";"0";"10025"
"22.02.2023, 00:10";"1677028202";"120";"0";"3";"54";"91";"9";"0";"6";"0";"47";"0";"10023"
"22.02.2023, 00:20";"1677028801";"98";"1";"3";"52";"92";"10";"0";"10";"0";"49";"0";"10023"
"22.02.2023, 00:30";"1677029401";"84";"1";"4";"52";"92";"10";"0";"10";"0";"49";"0";"10023"
"22.02.2023, 00:40";"1677030001";"94";"1";"3";"51";"92";"10";"0";"10";"0";"50";"0";"10023"
"22.02.2023, 00:50";"1677030601";"103";"1";"3";"51";"93";"10";"0";"10";"0";"51";"0";"10023"
"22.02.2023, 01:00";"1677031201";"134";"0";"1";"51";"93";"9";"0";"10";"0";"53";"0";"10023"
"22.02.2023, 01:10";"1677031801";"168";"0";"1";"52";"93";"9";"0";"10";"0";"54";"0";"10018"
"22.02.2023, 01:20";"1677032401";"91";"0";"3";"54";"93";"10";"0";"10";"0";"55";"0";"10018"
"22.02.2023, 01:30";"1677033001";"107";"1";"3";"55";"93";"10";"0";"10";"0";"55";"0";"10018"
"22.02.2023, 01:40";"1677033601";"139";"1";"3";"54";"93";"9";"0";"10";"0";"55";"0";"10018"
"22.02.2023, 01:50";"1677034201";"168";"1";"3";"54";"93";"9";"0";"10";"0";"54";"0";"10018"
"22.02.2023, 02:00";"1677034801";"167";"2";"4";"54";"93";"9";"0";"10";"0";"54";"0";"10018"
"22.02.2023, 02:10";"1677035402";"122";"1";"4";"53";"93";"9";"0";"10";"0";"53";"0";"10011"
"22.02.2023, 02:20";"1677036001";"146";"1";"3";"52";"93";"9";"0";"10";"0";"53";"0";"10011"
"22.02.2023, 02:30";"1677036602";"165";"1";"3";"51";"93";"9";"0";"10";"0";"53";"0";"10011"
"22.02.2023, 02:40";"1677037201";"170";"0";"3";"50";"93";"9";"0";"10";"0";"52";"0";"10011"
"22.02.2023, 02:50";"1677037801";"184";"0";"2";"50";"93";"8";"0";"10";"0";"51";"0";"10011"
"22.02.2023, 03:00";"1677038401";"196";"2";"4";"49";"93";"8";"0";"10";"0";"49";"0";"10011"
"22.02.2023, 03:10";"1677039001";"191";"2";"4";"48";"93";"8";"0";"10";"0";"48";"0";"10011"
"22.02.2023, 03:20";"1677039601";"184";"2";"5";"46";"93";"8";"0";"10";"0";"46";"0";"10011"
"22.02.2023, 03:30";"1677040201";"190";"2";"6";"43";"92";"8";"0";"10";"0";"41";"0";"10011"
"22.02.2023, 03:40";"1677040801";"171";"2";"5";"41";"93";"8";"0";"10";"0";"42";"0";"10011"
"22.02.2023, 03:50";"1677041401";"162";"2";"4";"41";"93";"9";"0";"10";"0";"43";"0";"10011"
"22.02.2023, 04:00";"1677042001";"142";"2";"6";"42";"94";"9";"0";"10";"0";"43";"0";"10011"
"22.02.2023, 04:10";"1677042601";"130";"2";"6";"43";"94";"9";"0";"10";"0";"45";"0";"10007"
"22.02.2023, 04:20";"1677043201";"132";"4";"8";"42";"93";"9";"0";"10";"0";"42";"0";"10007"
"22.02.2023, 04:30";"1677043801";"133";"3";"6";"41";"93";"9";"0";"10";"0";"40";"0";"10007"
"22.02.2023, 04:40";"1677044401";"142";"2";"6";"39";"93";"9";"0";"10";"0";"38";"0";"10007"
"22.02.2023, 04:50";"1677045001";"164";"2";"5";"38";"93";"9";"0";"10";"0";"37";"0";"10007"
"22.02.2023, 05:00";"1677045601";"157";"1";"4";"36";"93";"9";"0";"10";"0";"35";"0";"10007"
"22.02.2023, 05:10";"1677046201";"156";"1";"4";"36";"93";"9";"0";"10";"0";"34";"0";"10004"
"22.02.2023, 05:20";"1677046801";"172";"1";"4";"36";"93";"8";"0";"10";"0";"34";"0";"10004"
"22.02.2023, 05:30";"1677047401";"150";"0";"2";"36";"94";"9";"0";"10";"0";"35";"0";"10004"
"22.02.2023, 05:40";"1677048001";"152";"0";"2";"37";"94";"9";"0";"10";"0";"34";"0";"10004"
"22.02.2023, 05:50";"1677048601";"154";"0";"2";"37";"94";"9";"0";"10";"0";"33";"0";"10004"
"22.02.2023, 06:00";"1677049201";"153";"0";"1";"38";"94";"18";"0";"10";"0";"35";"0";"10004"
"22.02.2023, 06:10";"1677049801";"110";"0";"2";"40";"94";"54";"0";"10";"0";"37";"0";"10002"
"22.02.2023, 06:20";"1677050401";"120";"0";"2";"41";"93";"104";"0";"10";"0";"39";"0";"10002"
"22.02.2023, 06:30";"1677051001";"32";"0";"2";"42";"93";"213";"0";"10";"0";"43";"0";"10002"
"22.02.2023, 06:40";"1677051601";"34";"1";"3";"44";"92";"306";"0";"10";"0";"45";"0";"10002"
"22.02.2023, 06:50";"1677052201";"55";"0";"3";"46";"92";"293";"0";"10";"0";"50";"0";"10002"
"22.02.2023, 07:00";"1677052802";"28";"1";"3";"48";"92";"303";"0";"10";"0";"53";"0";"10002"
"22.02.2023, 07:10";"1677053401";"50";"0";"2";"50";"91";"453";"5";"10";"0";"57";"0";"9997"
"22.02.2023, 07:20";"1677054001";"28";"1";"3";"52";"91";"805";"10";"10";"0";"62";"0";"9997"
"22.02.2023, 07:30";"1677054601";"18";"1";"3";"56";"90";"978";"10";"10";"0";"68";"0";"9997"
"22.02.2023, 07:40";"1677055201";"25";"0";"2";"58";"89";"758";"10";"10";"0";"70";"0";"9997"
"22.02.2023, 07:50";"1677055801";"14";"1";"3";"62";"89";"646";"10";"10";"0";"72";"0";"9997"
"22.02.2023, 08:00";"1677056401";"23";"1";"2";"66";"88";"766";"10";"10";"0";"81";"0";"9997"
"22.02.2023, 08:10";"1677057001";"353";"0";"2";"72";"87";"1,009";"10";"10";"0";"97";"0";"9995"
"22.02.2023, 08:20";"1677057601";"301";"0";"2";"76";"85";"1,316";"10";"10";"0";"100";"0";"9995"
"22.02.2023, 08:30";"1677058201";"299";"0";"1";"82";"83";"1,326";"10";"1";"0";"110";"0";"9995"
"22.02.2023, 08:40";"1677058801";"299";"0";"0";"88";"80";"1,336";"10";"0";"0";"113";"0";"9995"
"22.02.2023, 08:50";"1677059401";"299";"0";"1";"92";"78";"1,048";"10";"0";"0";"114";"0";"9995"
"22.02.2023, 09:00";"1677060001";"299";"0";"0";"97";"76";"1,193";"10";"0";"0";"122";"0";"9995"
"22.02.2023, 09:10";"1677060601";"299";"0";"0";"103";"75";"1,196";"10";"0";"0";"119";"0";"9991"
"22.02.2023, 09:20";"1677061201";"299";"0";"1";"105";"74";"1,182";"10";"0";"0";"121";"0";"9991"
"22.02.2023, 09:30";"1677061801";"303";"0";"2";"109";"73";"1,328";"10";"0";"0";"124";"0";"9991"
"22.02.2023, 09:40";"1677062401";"272";"0";"0";"117";"70";"1,416";"10";"0";"0";"139";"0";"9991"
"22.02.2023, 09:50";"1677063001";"164";"0";"4";"127";"65";"1,586";"10";"0";"0";"140";"0";"9991"
"22.02.2023, 10:00";"1677063601";"157";"3";"10";"134";"57";"1,664";"10";"0";"0";"142";"0";"9991"
"22.02.2023, 10:10";"1677064201";"142";"4";"10";"138";"56";"1,782";"10";"0";"0";"141";"0";"9983"
"22.02.2023, 10:20";"1677064802";"141";"4";"11";"140";"55";"1,593";"10";"0";"0";"142";"0";"9983"
"22.02.2023, 10:30";"1677065401";"154";"6";"11";"143";"54";"1,785";"10";"0";"0";"155";"0";"9983"
"22.02.2023, 10:40";"1677066001";"145";"4";"10";"145";"53";"1,841";"10";"0";"0";"148";"0";"9983"
"22.02.2023, 10:50";"1677066602";"154";"5";"10";"147";"53";"1,523";"10";"0";"0";"156";"0";"9983"
"22.02.2023, 11:00";"1677067201";"170";"4";"10";"148";"53";"1,370";"10";"0";"0";"151";"0";"9983"
"22.02.2023, 11:10";"1677067802";"162";"4";"8";"150";"53";"1,423";"10";"0";"0";"158";"0";"9979"
"22.02.2023, 11:20";"1677068402";"168";"4";"10";"150";"53";"1,449";"10";"0";"0";"160";"0";"9979"
"22.02.2023, 11:30";"1677069001";"173";"4";"9";"152";"52";"1,529";"10";"0";"0";"162";"0";"9979"
"22.02.2023, 11:40";"1677069601";"167";"5";"9";"153";"52";"1,389";"10";"0";"0";"156";"0";"9979"
"22.02.2023, 11:50";"1677070201";"183";"5";"10";"153";"50";"1,198";"10";"0";"0";"152";"0";"9979"
"22.02.2023, 12:00";"1677070801";"179";"4";"9";"153";"52";"1,048";"10";"0";"0";"153";"0";"9979"
"22.02.2023, 12:10";"1677071401";"177";"4";"7";"154";"52";"1,131";"10";"0";"0";"157";"0";"9979"
"22.02.2023, 12:20";"1677072001";"172";"4";"8";"154";"47";"1,083";"10";"0";"0";"149";"0";"9979"
"22.02.2023, 12:30";"1677072601";"181";"5";"9";"153";"50";"905";"10";"0";"0";"146";"0";"9979"
"22.02.2023, 12:40";"1677073201";"171";"4";"9";"151";"49";"841";"10";"0";"0";"143";"0";"9979"
"22.02.2023, 12:50";"1677073801";"176";"5";"9";"150";"49";"772";"10";"0";"0";"143";"0";"9979"
"22.02.2023, 13:00";"1677074402";"178";"5";"9";"149";"50";"774";"10";"0";"0";"144";"0";"9979"
"22.02.2023, 13:10";"1677075001";"193";"6";"9";"150";"50";"957";"10";"0";"0";"147";"0";"9976"
"22.02.2023, 13:20";"1677075601";"180";"6";"10";"150";"53";"979";"10";"0";"0";"146";"0";"9976"
"22.02.2023, 13:30";"1677076201";"184";"6";"11";"150";"53";"656";"9";"0";"0";"144";"0";"9976"
"22.02.2023, 13:40";"1677076801";"201";"5";"10";"149";"53";"241";"0";"0";"0";"140";"0";"9976"
"22.02.2023, 13:50";"1677077402";"204";"5";"11";"148";"55";"290";"0";"0";"0";"137";"0";"9976"
"22.02.2023, 14:00";"1677078001";"190";"4";"8";"147";"55";"216";"0";"0";"0";"137";"0";"9976"
"22.02.2023, 14:10";"1677078601";"193";"6";"10";"145";"56";"280";"0";"0";"0";"138";"0";"9976"
"22.02.2023, 14:20";"1677079201";"195";"5";"9";"146";"57";"468";"7";"0";"0";"139";"0";"9976"
"22.02.2023, 14:30";"1677079801";"192";"4";"8";"146";"57";"484";"10";"0";"0";"138";"0";"9976"
"22.02.2023, 14:40";"1677080401";"187";"5";"9";"145";"59";"336";"2";"0";"0";"135";"0";"9976"
"22.02.2023, 14:50";"1677081001";"196";"5";"9";"144";"59";"206";"0";"0";"0";"133";"0";"9976"
"22.02.2023, 15:00";"1677081601";"191";"6";"11";"142";"60";"124";"0";"0";"0";"130";"0";"9976"
"22.02.2023, 15:10";"1677082201";"196";"4";"7";"140";"61";"61";"0";"0";"0";"129";"0";"9979"
"22.02.2023, 15:20";"1677082801";"207";"6";"13";"139";"62";"39";"0";"0";"0";"126";"0";"9979"
"22.02.2023, 15:30";"1677083401";"208";"4";"8";"138";"62";"14";"0";"0";"0";"122";"0";"9979"
"22.02.2023, 15:40";"1677084001";"190";"3";"6";"136";"63";"9";"0";"0";"0";"120";"0";"9979"
"22.02.2023, 15:50";"1677084602";"195";"3";"8";"135";"63";"7";"0";"0";"0";"124";"0";"9979"
"22.02.2023, 16:00";"1677085201";"195";"5";"9";"134";"65";"7";"0";"0";"0";"119";"0";"9979"
"22.02.2023, 16:10";"1677085801";"194";"4";"8";"131";"66";"8";"0";"0";"0";"116";"0";"9981"
"22.02.2023, 16:20";"1677086401";"201";"4";"7";"129";"67";"7";"0";"0";"0";"115";"0";"9981"
"22.02.2023, 16:30";"1677087001";"205";"3";"7";"128";"67";"7";"0";"0";"0";"113";"0";"9981"
"22.02.2023, 16:40";"1677087601";"215";"3";"7";"126";"67";"7";"0";"0";"0";"112";"0";"9981"
"22.02.2023, 16:50";"1677088201";"218";"4";"9";"126";"67";"7";"0";"0";"0";"113";"0";"9981"
"22.02.2023, 17:00";"1677088801";"215";"4";"7";"124";"68";"7";"0";"0";"0";"108";"0";"9981"
"22.02.2023, 17:10";"1677089401";"236";"3";"8";"122";"69";"6";"0";"0";"0";"104";"0";"9987"
"22.02.2023, 17:20";"1677090001";"228";"4";"7";"120";"70";"7";"0";"0";"0";"104";"0";"9987"
"22.02.2023, 17:30";"1677090601";"221";"4";"8";"118";"71";"7";"0";"0";"0";"102";"0";"9987"
"22.02.2023, 17:40";"1677091201";"230";"5";"11";"117";"72";"6";"0";"0";"0";"104";"0";"9987"
"22.02.2023, 17:50";"1677091801";"241";"4";"9";"115";"73";"6";"0";"0";"0";"105";"0";"9987"
"22.02.2023, 18:00";"1677092401";"247";"5";"12";"114";"73";"6";"0";"0";"0";"104";"0";"9987"
"22.02.2023, 18:10";"1677093001";"252";"6";"13";"112";"75";"6";"0";"0";"0";"102";"0";"9991"
"22.02.2023, 18:20";"1677093601";"243";"6";"12";"110";"76";"6";"0";"1";"0";"101";"0";"9991"
"22.02.2023, 18:30";"1677094201";"226";"6";"10";"108";"78";"7";"0";"10";"0";"99";"0";"9991"
"22.02.2023, 18:40";"1677094802";"222";"4";"10";"107";"79";"7";"0";"6";"0";"99";"0";"9991"
"22.02.2023, 18:50";"1677095401";"228";"4";"9";"106";"79";"7";"0";"0";"0";"97";"0";"9991"